QPF
0.06 0.05 0.04 0.03 0.03 0.02 0.01 0.01 0.01 0.01 0.01 0.01 0.02 0.03 0.03 0.03 0.03 0.03 0.03 0.03 0.03 0.03 0.03 0.02 0.01 0.01 0.02 0.02 0.01 0.01 0.01 0.01 0.01 0.01 0.01 0.01 0.01 0.01
0.05 0.05 0.05 0.04 0.04 0.03 0.02 0.01 0.01 0.01 0.01 0.01 0.01 0.02 0.03 0.03 0.03 0.04 0.04 0.05 0.05 0.05 0.04 0.03 0.02 0.01 0.01 0.01 0.01 0.01 0.01 0.00 0.00 0.00 0.00 0.01 0.01 0.01
0.03 0.03 0.04 0.04 0.04 0.03 0.03 0.03 0.02 0.02 0.01 0.01 0.01 0.01 0.02 0.03 0.03 0.03 0.03 0.04 0.05 0.05 0.04 0.03 0.02 0.02 0.01 0.01 0.01 0.01 0.01 0.00 0.00 0.00 0.00 0.00 0.00 0.01
0.04 0.04 0.04 0.04 0.04 0.05 0.05 0.05 0.04 0.03 0.02 0.01 0.02 0.02 0.02 0.02 0.02 0.02 0.02 0.02 0.03 0.03 0.03 0.03 0.03 0.02 0.01 0.01 0.01 0.01 0.01 0.00 0.00 0.00 0.00 0.00 0.00 0.00
0.06 0.04 0.04 0.04 0.04 0.04 0.04 0.04 0.04 0.03 0.02 0.02 0.02 0.02 0.02 0.02 0.02 0.02 0.02 0.02 0.02 0.02 0.02 0.02 0.03 0.03 0.03 0.02 0.02 0.02 0.02 0.01 0.00 0.00 0.00 0.00 0.00 0.01
0.08 0.06 0.04 0.03 0.03 0.03 0.03 0.03 0.03 0.03 0.03 0.03 0.02 0.02 0.02 0.02 0.02 0.02 0.02 0.01 0.01 0.01 0.01 0.01 0.01 0.02 0.02 0.02 0.02 0.01 0.02 0.02 0.01 0.01 0.01 0.00 0.00 0.00
0.10 0.07 0.05 0.04 0.04 0.04 0.04 0.04 0.04 0.04 0.04 0.04 0.03 0.03 0.03 0.02 0.02 0.02 0.02 0.02 0.01 0.01 0.01 0.01 0.01 0.01 0.01 0.02 0.02 0.01 0.01 0.01 0.01 0.01 0.01 0.01 0.00 0.00
0.08 0.08 0.06 0.05 0.05 0.05 0.05 0.04 0.04 0.04 0.04 0.04 0.04 0.04 0.03 0.03 0.02 0.02 0.02 0.02 0.02 0.01 0.01 0.01 0.00 0.00 0.00 0.01 0.01 0.01 0.01 0.01 0.01 0.01 0.01 0.01 0.01 0.01
0.06 0.07 0.06 0.05 0.04 0.03 0.03 0.04 0.03 0.03 0.03 0.03 0.03 0.03 0.03 0.02 0.02 0.02 0.02 0.02 0.02 0.02 0.01 0.01 0.01 0.00 0.00 0.00 0.01 0.01 0.01 0.00 0.01 0.01 0.01 0.00 0.00 0.00
0.05 0.06 0.06 0.06 0.05 0.04 0.03 0.03 0.02 0.02 0.02 0.02 0.02 0.03 0.03 0.03 0.03 0.02 0.02 0.02 0.02 0.01 0.01 0.01 0.01 0.00 0.00 0.00 0.00 0.00 0.01 0.01 0.00 0.00 0.00 0.00 0.00 0.00
0.03 0.04 0.04 0.05 0.05 0.06 0.04 0.03 0.02 0.02 0.02 0.02 0.02 0.02 0.02 0.03 0.03 0.03 0.03 0.02 0.02 0.01 0.01 0.01 0.01 0.01 0.00 0.00 0.00 0.00 0.00 0.00 0.00 0.00 0.00 0.00 0.00 0.00
0.03 0.02 0.03 0.04 0.04 0.05 0.04 0.04 0.03 0.02 0.02 0.02 0.02 0.02 0.02 0.02 0.02 0.02 0.02 0.03 0.02 0.02 0.01 0.01 0.01 0.01 0.01 0.01 0.00 0.00 0.00 0.00 0.00 0.00 0.00 0.00 0.00 0.01
0.03 0.03 0.02 0.03 0.04 0.04 0.04 0.04 0.03 0.03 0.02 0.02 0.01 0.01 0.01 0.01 0.01 0.01 0.02 0.02 0.02 0.02 0.02 0.01 0.01 0.01 0.01 0.01 0.01 0.00 0.00 0.00 0.00 0.00 0.01 0.01 0.01 0.01
0.04 0.03 0.03 0.03 0.04 0.04 0.04 0.04 0.05 0.04 0.03 0.02 0.01 0.01 0.01 0.00 0.01 0.01 0.01 0.01 0.01 0.01 0.02 0.01 0.01 0.01 0.01 0.01 0.01 0.01 0.01 0.00 0.00 0.01 0.01 0.01 0.02 0.01
0.04 0.04 0.04 0.04 0.04 0.05 0.05 0.05 0.05 0.04 0.04 0.03 0.02 0.01 0.01 0.01 0.01 0.01 0.01 0.01 0.01 0.01 0.01 0.01 0.02 0.02 0.02 0.02 0.01 0.01 0.01 0.01 0.01 0.01 0.01 0.01 0.01 0.01
0.06 0.06 0.06 0.06 0.05 0.04 0.05 0.05 0.04 0.05 0.04 0.03 0.02 0.02 0.01 0.01 0.01 0.01 0.01 0.01 0.01 0.01 0.01 0.01 0.01 0.02 0.02 0.02 0.02 0.01 0.01 0.01 0.01 0.01 0.01 0.00 0.00 0.00
0.08 0.09 0.08 0.07 0.06 0.05 0.04 0.04 0.04 0.04 0.04 0.03 0.02 0.02 0.02 0.02 0.02 0.01 0.01 0.01 0.01 0.01 0.01 0.01 0.01 0.02 0.01 0.01 0.02 0.01 0.01 0.01 0.01 0.01 0.01 0.01 0.01 0.01
0.08 0.07 0.07 0.06 0.04 0.04 0.03 0.03 0.04 0.04 0.03 0.03 0.03 0.02 0.02 0.02 0.02 0.01 0.01 0.01 0.01 0.01 0.01 0.01 0.01 0.01 0.01 0.01 0.01 0.01 0.01 0.01 0.00 0.00 0.00 0.01 0.01 0.00
0.07 0.06 0.05 0.05 0.04 0.03 0.03 0.03 0.03 0.03 0.03 0.03 0.03 0.03 0.02 0.02 0.02 0.01 0.01 0.01 0.01 0.02 0.02 0.01 0.01 0.01 0.01 0.01 0.01 0.00 0.00 0.00 0.00 0.00 0.00 0.01 0.00 0.00
0.07 0.06 0.05 0.05 0.05 0.04 0.04 0.04 0.03 0.03 0.03 0.03 0.02 0.02 0.02 0.02 0.02 0.02 0.01 0.01 0.01 0.01 0.01 0.01 0.01 0.01 0.01 0.01 0.01 0.00 0.00 0.00 0.00 0.01 0.01 0.01 0.00 0.01
0.07 0.06 0.05 0.04 0.05 0.05 0.05 0.04 0.04 0.03 0.03 0.02 0.02 0.03 0.03 0.03 0.02 0.02 0.01 0.02 0.02 0.02 0.02 0.01 0.01 0.01 0.01 0.01 0.01 0.00 0.00 0.00 0.01 0.01 0.01 0.01 0.01 0.01
0.05 0.05 0.05 0.05 0.04 0.04 0.05 0.05 0.04 0.04 0.03 0.03 0.03 0.03 0.03 0.03 0.02 0.02 0.02 0.02 0.02 0.02 0.01 0.01 0.01 0.01 0.01 0.01 0.01 0.00 0.00 0.00 0.00 0.01 0.01 0.01 0.01 0.01
0.05 0.06 0.06 0.05 0.05 0.04 0.04 0.04 0.04 0.04 0.04 0.04 0.03 0.03 0.03 0.03 0.03 0.03 0.03 0.03 0.03 0.02 0.02 0.02 0.02 0.01 0.01 0.01 0.01 0.01 0.00 0.00 0.00 0.00 0.00 0.00 0.00 0.00
MSLP
1008.75 1008.22 1007.84 1007.61 1007.50 1007.50 1007.58 1007.72 1007.87 1008.03 1008.17 1008.27 1008.34 1008.39 1008.43 1008.50 1008.63 1008.85 1009.21 1009.71 1010.37 1011.17 1012.08 1013.08 1014.12 1015.17 1016.18 1017.13 1018.01 1018.84 1019.60 1020.32 1021.01 1021.67 1022.29 1022.88 1023.41 1023.88
1008.09 1007.48 1007.05 1006.78 1006.67 1006.69 1006.83 1007.06 1007.32 1007.60 1007.87 1008.10 1008.27 1008.41 1008.52 1008.63 1008.79 1009.03 1009.39 1009.89 1010.55 1011.35 1012.28 1013.29 1014.34 1015.39 1016.41 1017.37 1018.27 1019.09 1019.86 1020.58 1021.27 1021.94 1022.59 1023.19 1023.74 1024.21
1007.48 1006.79 1006.27 1005.93 1005.77 1005.79 1005.95 1006.24 1006.60 1007.00 1007.41 1007.79 1008.12 1008.41 1008.65 1008.88 1009.14 1009.45 1009.87 1010.42 1011.11 1011.94 1012.87 1013.88 1014.92 1015.96 1016.95 1017.87 1018.73 1019.51 1020.24 1020.94 1021.61 1022.26 1022.90 1023.51 1024.06 1024.53
1006.95 1006.16 1005.54 1005.10 1004.86 1004.83 1004.98 1005.29 1005.72 1006.24 1006.79 1007.34 1007.87 1008.34 1008.78 1009.19 1009.60 1010.07 1010.60 1011.24 1012.00 1012.87 1013.82 1014.83 1015.84 1016.83 1017.76 1018.62 1019.39 1020.10 1020.75 1021.38 1021.99 1022.61 1023.21 1023.80 1024.34 1024.81
1006.49 1005.61 1004.88 1004.32 1003.98 1003.86 1003.96 1004.27 1004.74 1005.35 1006.03 1006.76 1007.48 1008.18 1008.84 1009.47 1010.11 1010.76 1011.46 1012.23 1013.09 1014.02 1015.01 1016.01 1016.99 1017.93 1018.78 1019.54 1020.21 1020.81 1021.35 1021.88 1022.41 1022.95 1023.50 1024.04 1024.55 1025.00
1006.08 1005.11 1004.27 1003.60 1003.14 1002.92 1002.95 1003.22 1003.71 1004.39 1005.19 1006.07 1006.99 1007.91 1008.81 1009.68 1010.55 1011.41 1012.30 1013.23 1014.21 1015.23 1016.26 1017.27 1018.23 1019.10 1019.87 1020.53 1021.09 1021.56 1021.99 1022.40 1022.83 1023.27 1023.74 1024.22 1024.68 1025.09
1005.64 1004.62 1003.69 1002.91 1002.34 1002.02 1001.98 1002.21 1002.71 1003.43 1004.33 1005.35 1006.44 1007.56 1008.67 1009.77 1010.85 1011.92 1012.99 1014.08 1015.18 1016.29 1017.37 1018.40 1019.34 1020.18 1020.88 1021.46 1021.92 1022.29 1022.60 1022.90 1023.21 1023.55 1023.93 1024.33 1024.73 1025.09
1005.12 1004.05 1003.06 1002.21 1001.56 1001.17 1001.08 1001.29 1001.79 1002.56 1003.53 1004.66 1005.89 1007.16 1008.45 1009.72 1010.97 1012.21 1013.43 1014.65 1015.86 1017.04 1018.17 1019.23 1020.18 1021.00 1021.67 1022.20 1022.59 1022.88 1023.12 1023.32 1023.54 1023.79 1024.08 1024.40 1024.73 1025.04
1004.44 1003.36 1002.34 1001.46 1000.78 1000.38 1000.28 1000.50 1001.03 1001.84 1002.88 1004.10 1005.42 1006.79 1008.19 1009.57 1010.93 1012.27 1013.59 1014.89 1016.17 1017.40 1018.58 1019.67 1020.64 1021.47 1022.15 1022.67 1023.04 1023.31 1023.50 1023.66 1023.82 1024.00 1024.22 1024.47 1024.73 1024.99
1003.58 1002.51 1001.51 1000.65 1000.01 999.65 999.61 999.89 1000.49 1001.37 1002.47 1003.74 1005.11 1006.54 1007.98 1009.40 1010.80 1012.16 1013.51 1014.83 1016.13 1017.39 1018.59 1019.70 1020.71 1021.57 1022.29 1022.84 1023.26 1023.55 1023.76 1023.92 1024.06 1024.21 1024.38 1024.58 1024.78 1024.98
1002.56 1001.53 1000.59 999.82 999.28 999.03 999.11 999.51 1000.21 1001.17 1002.35 1003.66 1005.06 1006.49 1007.91 1009.31 1010.67 1012.00 1013.30 1014.59 1015.86 1017.10 1018.31 1019.44 1020.47 1021.39 1022.17 1022.80 1023.28 1023.65 1023.92 1024.12 1024.29 1024.44 1024.59 1024.75 1024.90 1025.05
1001.46 1000.50 999.67 999.03 998.65 998.58 998.82 999.38 1000.22 1001.30 1002.54 1003.90 1005.30 1006.70 1008.07 1009.39 1010.67 1011.91 1013.13 1014.34 1015.54 1016.74 1017.92 1019.05 1020.11 1021.07 1021.91 1022.63 1023.21 1023.67 1024.02 1024.30 1024.51 1024.69 1024.84 1024.97 1025.08 1025.18
1000.38 999.53 998.84 998.38 998.20 998.34 998.80 999.54 1000.54 1001.73 1003.06 1004.44 1005.84 1007.20 1008.49 1009.72 1010.89 1012.02 1013.13 1014.24 1015.35 1016.48 1017.61 1018.71 1019.78 1020.77 1021.67 1022.46 1023.12 1023.67 1024.12 1024.47 1024.74 1024.94 1025.10 1025.21 1025.28 1025.32
999.46 998.74 998.22 997.97 998.01 998.38 999.05 999.99 1001.14 1002.45 1003.84 1005.25 1006.63 1007.95 1009.17 1010.31 1011.37 1012.39 1013.39 1014.40 1015.42 1016.47 1017.53 1018.59 1019.63 1020.63 1021.55 1022.38 1023.10 1023.71 1024.22 1024.62 1024.93 1025.16 1025.31 1025.40 1025.43 1025.40
998.76 998.21 997.90 997.86 998.13 998.71 999.58 1000.68 1001.97 1003.37 1004.81 1006.24 1007.60 1008.87 1010.03 1011.09 1012.08 1013.02 1013.93 1014.85 1015.79 1016.76 1017.75 1018.75 1019.75 1020.71 1021.61 1022.43 1023.17 1023.80 1024.32 1024.74 1025.06 1025.28 1025.42 1025.46 1025.44 1025.34
998.36 998.00 997.89 998.07 998.54 999.31 1000.33 1001.56 1002.93 1004.38 1005.84 1007.27 1008.61 1009.84 1010.97 1011.99 1012.93 1013.83 1014.70 1015.56 1016.44 1017.35 1018.27 1019.20 1020.12 1021.01 1021.85 1022.62 1023.31 1023.91 1024.40 1024.80 1025.09 1025.27 1025.36 1025.36 1025.26 1025.10
998.23 998.08 998.18 998.55 999.19 1000.10 1001.22 1002.52 1003.92 1005.38 1006.83 1008.23 1009.54 1010.75 1011.86 1012.87 1013.81 1014.71 1015.57 1016.42 1017.27 1018.13 1018.99 1019.84 1020.67 1021.47 1022.22 1022.90 1023.50 1024.02 1024.44 1024.76 1024.99 1025.11 1025.14 1025.06 1024.90 1024.66
998.31 998.39 998.69 999.22 999.99 1000.98 1002.15 1003.45 1004.83 1006.25 1007.65 1009.00 1010.28 1011.48 1012.59 1013.63 1014.60 1015.53 1016.42 1017.29 1018.14 1018.98 1019.79 1020.57 1021.31 1022.00 1022.64 1023.20 1023.69 1024.10 1024.42 1024.65 1024.79 1024.83 1024.77 1024.62 1024.38 1024.07
998.54 998.83 999.31 999.97 1000.83 1001.85 1003.02 1004.28 1005.60 1006.94 1008.27 1009.57 1010.81 1012.00 1013.13 1014.20 1015.23 1016.21 1017.16 1018.07 1018.94 1019.77 1020.55 1021.27 1021.93 1022.52 1023.04 1023.49 1023.86 1024.15 1024.36 1024.49 1024.54 1024.49 1024.35 1024.12 1023.82 1023.44
998.84 999.32 999.95 1000.72 1001.63 1002.65 1003.77 1004.96 1006.20 1007.45 1008.70 1009.94 1011.15 1012.33 1013.48 1014.60 1015.68 1016.74 1017.74 1018.70 1019.60 1020.43 1021.19 1021.87 1022.46 1022.97 1023.39 1023.74 1024.01 1024.20 1024.32 1024.35 1024.31 1024.18 1023.97 1023.67 1023.30 1022.87
999.19 999.84 1000.58 1001.42 1002.35 1003.35 1004.41 1005.53 1006.67 1007.83 1009.01 1010.19 1011.37 1012.55 1013.72 1014.88 1016.02 1017.13 1018.19 1019.19 1020.11 1020.95 1021.69 1022.33 1022.88 1023.32 1023.68 1023.96 1024.15 1024.27 1024.32 1024.29 1024.18 1023.99 1023.71 1023.36 1022.93 1022.45
999.62 1000.38 1001.20 1002.08 1003.01 1003.98 1004.99 1006.03 1007.09 1008.19 1009.30 1010.44 1011.60 1012.78 1013.97 1015.16 1016.33 1017.47 1018.56 1019.58 1020.51 1021.34 1022.07 1022.68 1023.20 1023.61 1023.93 1024.17 1024.32 1024.41 1024.42 1024.35 1024.19 1023.96 1023.63 1023.23 1022.75 1022.23
1000.18 1001.01 1001.87 1002.77 1003.68 1004.62 1005.58 1006.56 1007.57 1008.62 1009.69 1010.80 1011.95 1013.13 1014.32 1015.51 1016.69 1017.83 1018.92 1019.93 1020.84 1021.65 1022.36 1022.95 1023.45 1023.84 1024.15 1024.38 1024.53 1024.61 1024.60 1024.52 1024.34 1024.08 1023.72 1023.28 1022.76 1022.18
Thickness
5560 5561 5563 5564 5565 5567 5568 5568 5566 5564 5565 5566 5567 5569 5569 5570 5570 5570 5569 5568 5568 5567 5565 5563 5562 5560 5558 5556 5554 5552 5550 5548 5546 5543 5541 5539 5536 5534
5551 5553 5555 5556 5558 5559 5560 5561 5561 5561 5559 5560 5559 5560 5561 5562 5562 5562 5561 5560 5559 5558 5557 5555 5554 5552 5550 5548 5546 5544 5541 5539 5537 5534 5532 5530 5528 5525
5542 5544 5547 5548 5550 5550 5551 5552 5553 5553 5552 5551 5550 5551 5552 5552 5552 5553 5552 5552 5551 5550 5548 5546 5545 5544 5541 5539 5537 5535 5532 5530 5527 5525 5522 5520 5518 5516
5533 5535 5537 5539 5541 5542 5543 5544 5545 5545 5545 5543 5542 5541 5542 5543 5543 5543 5543 5543 5542 5541 5539 5538 5536 5534 5532 5530 5527 5525 5522 5520 5517 5515 5513 5510 5507 5504
5523 5526 5528 5529 5531 5533 5535 5536 5536 5537 5537 5536 5534 5533 5532 5532 5532 5532 5532 5532 5532 5531 5530 5529 5527 5525 5523 5520 5518 5515 5513 5510 5508 5505 5502 5499 5496 5494
5512 5516 5519 5521 5523 5524 5526 5527 5527 5527 5527 5527 5525 5523 5522 5522 5522 5521 5521 5520 5520 5520 5519 5518 5517 5515 5513 5511 5508 5505 5503 5500 5497 5494 5491 5488 5486 5483
5501 5505 5508 5512 5514 5515 5517 5517 5518 5518 5517 5517 5515 5514 5513 5512 5512 5511 5510 5509 5509 5508 5508 5507 5506 5504 5502 5500 5497 5494 5492 5489 5487 5484 5480 5478 5475 5472
5490 5493 5497 5500 5502 5504 5506 5508 5509 5509 5509 5508 5507 5506 5505 5504 5503 5501 5500 5498 5498 5497 5496 5495 5494 5493 5491 5489 5487 5484 5481 5478 5476 5473 5470 5467 5464 5462
5478 5482 5486 5489 5491 5493 5495 5496 5498 5500 5501 5501 5499 5499 5497 5496 5494 5491 5490 5489 5489 5487 5484 5484 5482 5481 5480 5478 5476 5474 5470 5467 5465 5462 5459 5457 5454 5450
5466 5471 5475 5477 5480 5483 5484 5484 5486 5487 5489 5490 5491 5490 5488 5487 5486 5484 5481 5477 5475 5474 5473 5471 5470 5469 5469 5467 5465 5462 5459 5456 5453 5450 5448 5445 5442 5439
5454 5458 5462 5466 5469 5471 5472 5473 5474 5475 5476 5478 5478 5478 5477 5476 5474 5471 5468 5465 5464 5462 5460 5459 5458 5457 5456 5456 5454 5451 5447 5445 5442 5439 5436 5433 5431 5428
5441 5446 5450 5453 5456 5458 5460 5462 5463 5464 5464 5464 5464 5464 5464 5463 5462 5461 5459 5455 5452 5450 5449 5447 5445 5443 5443 5443 5441 5438 5435 5433 5430 5428 5425 5422 5419 5416
5427 5432 5437 5440 5444 5446 5449 5451 5453 5453 5452 5452 5451 5451 5450 5450 5449 5448 5447 5446 5443 5440 5439 5435 5433 5430 5428 5429 5429 5426 5423 5421 5419 5416 5413 5410 5407 5404
5415 5420 5424 5428 5431 5434 5436 5438 5439 5439 5439 5439 5438 5438 5437 5437 5436 5435 5433 5432 5432 5431 5428 5425 5422 5419 5416 5414 5415 5414 5411 5409 5406 5404 5401 5399 5396 5392
5404 5408 5412 5415 5417 5420 5422 5424 5425 5426 5427 5427 5427 5426 5426 5425 5423 5421 5419 5418 5417 5416 5414 5413 5411 5409 5405 5403 5403 5401 5398 5397 5394 5392 5389 5387 5384 5381
5391 5395 5398 5401 5403 5406 5408 5409 5411 5414 5415 5415 5415 5413 5411 5410 5409 5408 5406 5404 5403 5401 5400 5399 5398 5397 5394 5392 5390 5389 5386 5384 5383 5379 5377 5375 5373 5370
5379 5382 5385 5387 5389 5391 5394 5396 5398 5399 5400 5401 5400 5399 5398 5397 5395 5394 5393 5391 5389 5387 5385 5384 5383 5382 5382 5380 5377 5377 5375 5372 5370 5367 5365 5364 5363 5359
5366 5369 5372 5374 5376 5379 5381 5383 5384 5386 5387 5387 5387 5387 5386 5385 5382 5380 5379 5378 5376 5375 5372 5370 5369 5368 5367 5367 5366 5364 5362 5359 5357 5355 5352 5350 5351 5349
5353 5356 5359 5361 5363 5366 5368 5370 5371 5372 5373 5374 5374 5373 5373 5371 5369 5368 5366 5364 5363 5362 5360 5357 5356 5354 5353 5354 5354 5351 5349 5347 5344 5342 5339 5337 5337 5338
5339 5342 5345 5347 5350 5352 5354 5356 5357 5359 5360 5361 5360 5360 5360 5359 5357 5355 5353 5352 5351 5349 5347 5345 5343 5342 5341 5339 5338 5337 5335 5333 5331 5329 5328 5326 5326 5326
5325 5328 5331 5333 5335 5338 5340 5342 5343 5345 5346 5347 5348 5347 5347 5346 5344 5343 5342 5340 5338 5336 5335 5334 5332 5330 5327 5324 5322 5324 5323 5321 5319 5316 5315 5313 5314 5314
5311 5314 5316 5319 5321 5323 5325 5327 5330 5332 5333 5334 5335 5334 5334 5333 5332 5331 5329 5327 5325 5324 5322 5320 5318 5315 5312 5311 5310 5310 5309 5309 5307 5305 5303 5302 5299 5300
5297 5299 5302 5304 5307 5309 5311 5314 5316 5318 5319 5321 5321 5321 5320 5320 5319 5318 5316 5314 5312 5310 5308 5306 5304 5302 5300 5298 5296 5295 5295 5295 5294 5294 5293 5292 5291 5290